Regional Weather Roundup
Issued by NWS

Home | Current Version | Previous Version | Graphics & Text | Print | Product List | Glossary On
Versions: 1 2 3 4 5 6 7 8 9 10 11 12 13 14 15 16 17 18 19 20 21 22 23 24 25 26 27 28 29 30 31 32 33 34 35 36 37 38 39 40 41 42 43 44 45 46 47 48 49 50
269
ASUS43 KDMX 262306
RWRIA

WEATHER ROUNDUP FOR IOWA
NATIONAL WEATHER SERVICE DES MOINES IA
600 PM CDT SUN MAR 26 2017

NOTE: "FAIR" INDICATES FEW OR NO CLOUDS BELOW 12,000 FEET WITH NO
SIGNIFICANT WEATHER AND/OR OBSTRUCTIONS TO VISIBILITY.

* - THESE STATIONS ARE NOT NWS STATIONS...THUS NOT UNDER NWS
QUALITY CONTROL.  THEY ALSO DO NOT REPORT WEATHER SUCH
AS PRECIPITATION OR FOG.

IAZ001>003-012>014-020>022-031>034-043>046-270000-
   NORTHWEST IOWA

CITY           SKY/WX    TMP DP  RH WIND       PRES   REMARKS
CARROLL *      CLOUDY    46  45  93 N9        29.90S
CHEROKEE *     CLOUDY    46  41  82 N8        29.91R
LE MARS *      CLOUDY    48  41  76 N8        29.92F
ORANGE CITY *  CLOUDY    46  43  87 NE9       29.91S
SHELDON *      CLOUDY    45  45 100 N12       29.90S
SIOUX CITY     CLOUDY    47  40  76 N10       29.90F
SPENCER        CLOUDY    44  39  82 N10       29.91S
STORM LAKE *     N/A     45  41  87 N8        29.91R
$$

IAZ055>058-069>071-079>083-090>094-270000-
   SOUTHWEST IOWA

CITY           SKY/WX    TMP DP  RH WIND       PRES   REMARKS
ATLANTIC *     CLOUDY    48  43  81 N10       29.89F
AUDUBON *      CLOUDY    46  43  87 NW5       29.91R
CLARINDA *     CLOUDY    48  45  87 N7        29.91F
COUNCIL BLFS * CLOUDY    48  46  93 N7        29.89F
CRESTON *      CLOUDY    46  45  93 CALM      29.90S
HARLAN  *      CLOUDY    48  46  93 NE10      29.92F
LAMONI         CLOUDY    48  43  82 VRB5      29.89S
RED OAK *      CLOUDY    48  43  81 N7        29.89F
SHENANDOAH *   CLOUDY    48  45  87 N9        29.88F
$$

IAZ047>049-059>061-072>074-084-270000-
   CENTRAL IOWA

CITY           SKY/WX    TMP DP  RH WIND       PRES   REMARKS
AMES           CLOUDY    46  44  93 N9        29.90R
ANKENY *       CLOUDY    46  43  87 NW8       29.90F
BOONE *        CLOUDY    45  45 100 NW8       29.89R
CHARITON *     CLOUDY    48  45  87 NW6       29.89S
DES MOINES     CLOUDY    48  43  82 NW6       29.90R
GRINNELL*      CLOUDY    46  43  91 W8        29.90R FOG
KNOXVILLE *    CLOUDY    46  45  93 NW8       29.88S FOG
MARSHALLTOWN   CLOUDY    47  45  93 NW9       29.88R
NEWTON *       CLOUDY    46  45  93 NW6       29.89R FOG
PELLA *        CLOUDY    46  44  92 NW6       29.91R FOG
PERRY *        CLOUDY    46  44  93 NW9       29.90S FOG
$$

IAZ004>006-015-016-023>025-035-036-270000-
   NORTH CENTRAL IOWA

CITY           SKY/WX    TMP DP  RH WIND       PRES   REMARKS
ALGONA *       PTSUNNY   43  43 100 N8        29.91R
CLARION *      CLOUDY    45  45 100 N7        29.90R
ESTHERVILLE    CLOUDY    42  39  89 NW12      29.91S
FORT DODGE *   CLOUDY    45  39  81 N7        29.91R
MASON CITY     CLOUDY    43  41  93 N9        29.90R FOG
FOREST CITY *  CLOUDY    43  41  93 N8        29.90R
WEBSTER CITY * CLOUDY    45  43  93 N9        29.88S
IOWA FALLS *   CLOUDY    46  44  91 NW7       29.90R
$$

IAZ007>011-017>019-026>030-037>042-050>054-066-270000-
   NORTHEAST IOWA

CITY           SKY/WX    TMP DP  RH WIND       PRES   REMARKS
CEDAR RAPIDS   CLOUDY    47  46  97 W10       29.87R
CHARLES CITY * CLOUDY    45  45 100 N14       29.88S
CLINTON *      CLOUDY    53  51  93 W13       29.85R FOG
DECORAH *      CLOUDY    43  41  93 N7        29.86R
DUBUQUE        CLOUDY    47  45  93 NW7       29.84R
MONTICELLO *   CLOUDY    48  46  93 NW6       29.85R
OELWEIN *      CLOUDY    46  46 100 NW9       29.87S
WATERLOO       CLOUDY    47  42  83 W7        29.88R
$$

IAZ064-065-067-068-078-270000-
   EAST CENTRAL IOWA

CITY           SKY/WX    TMP DP  RH WIND       PRES   REMARKS
DAVENPORT      CLOUDY    51  49  92 W12       29.86R FOG
IOWA CITY      CLOUDY    50  45  83 W10       29.89R
MUSCATINE *    CLOUDY    52  48  87 W8        29.88R
QUAD CITIES    CLOUDY    52  49  89 W9        29.85R FOG
$$

IAZ062-063-075>077-085>089-095>099-270000-
   SOUTHEAST IOWA

CITY           SKY/WX    TMP DP  RH WIND       PRES   REMARKS
BURLINGTON     CLOUDY    50  47  89 W9        29.89R
FAIRFIELD *    CLOUDY    48  45  87 W9        29.89S
FORT MADISON * CLOUDY    50  48  93 W9        29.91R
KEOKUK *       CLOUDY    50  46  87 W9        29.90R
OSKALOOSA *    CLOUDY    46  44  91 NW8       29.90R
OTTUMWA        CLOUDY    48  46  93 NW8       29.89R
WASHINGTON *   CLOUDY    48  46  93 W10       29.90R
$$

ABBREVIATIONS USED IN REMARKS
   TC - TEMPERATURES IN CELSIUS
  WCI - WIND CHILL INDEX
   HX - HEAT INDEX
  VSB - VISIBILITY
$$





USA.gov is the U.S. government's official web portal to all federal, state and local government web resources and services.